This demonstration page uses our WeatherBlox Daily Observations layout. Learn more.

41.86663, -103.66717

Hourly Observations for June 30, 2019

Temp ( °F °C ) Dew Point ( °F °C ) Humidity (%) Winds ( mph kmh ) Pressure ( in mb ) Visibility ( mi km ) Precip ( " mm )
12:53 am 00:53 Clear 68 20 62 16.7 81 81 N 5 7 29.93 1014 10 16.0934 0 0
1:53 am 01:53 Clear 69 20.6 61 16.1 76 76 N 6 9 29.91 1013 10 16.0934 0 0
2:53 am 02:53 Clear 64 17.8 60 15.6 87 87 N 6 9 29.9 1013 10 16.0934 0 0
3:53 am 03:53 Clear 66 18.9 60 15.6 81 81 ESE 7 11 29.92 1013 10 16.0934 0 0
4:53 am 04:53 Clear 61 16.1 61 16.1 100 100 NNW 3 6 29.94 1014 10 16.0934 0 0
5:53 am 05:53 undefined 63 17 N/A N/A Calm 29.95 1014 10 16.0934 0 0
6:53 am 06:53 undefined 66 18.9 64 17.8 93 93 SSW 3 6 29.95 1014 10 16.0934 0 0
7:53 am 07:53 Sunny 72 22.2 69 20.6 91 91 Calm 29.95 1014 10 16.0934 0 0
8:53 am 08:53 Sunny 72 22.2 68 20 87 87 WNW 8 13 29.96 1014 10 16.0934 0 0
9:53 am 09:53 Sunny 80 26.7 74 23.3 82 82 NNW 9 15 29.95 1014 10 16.0934 0 0
10:53 am 10:53 Sunny 83 28.3 79 26.1 88 88 N 14 22 29.95 1014 10 16.0934 0 0
11:53 am 11:53 Sunny 85 29.4 81 27.2 88 88 NE 8 13 29.95 1014 10 16.0934 0 0
12:53 pm 12:53 Sunny 87 30.6 82 27.8 85 85 N 9 15 29.94 1014 10 16.0934 0 0
1:53 pm 13:53 Sunny 85 29.4 81 27.2 88 88 NE 10 17 29.95 1014 10 16.0934 0 0
2:53 pm 14:53 Sunny 89 31.7 85 29.4 88 88 NNE 16 26 29.93 1014 10 16.0934 0 0
3:53 pm 15:53 Mostly Sunny 88 31 N/A N/A NE 13 20 29.91 1013 10 16.0934 0 0
4:53 pm 16:53 Sunny 88 31 N/A N/A ENE 9 15 29.9 1012 10 16.0934 0 0
5:53 pm 17:53 Sunny 88 31 N/A N/A ENE 9 15 29.87 1012 10 16.0934 0 0
6:53 pm 18:53 Sunny 82 28 N/A N/A NNE 8 13 29.88 1012 10 16.0934 0 0
7:53 pm 19:53 Sunny 81 27 N/A N/A NNE 14 22 29.85 1011 10 16.0934 0 0
8:53 pm 20:53 Mostly Cloudy with Nearby Thunderstorms 79 26 N/A N/A NW 7 11 29.93 1014 10 16.0934 0 0
9:08 pm 21:08 Cloudy with Light Rain 72 22 N/A N/A N 10 17 29.87 1012 8 12.87472 0.01 0.254
9:53 pm 21:53 Mostly Clear with Light Rain 70 21 N/A N/A N 12 19 29.93 1014 10 16.0934 0.05 1.27
10:46 pm 22:46 Windy with Storms Likely 66 19 N/A N/A SSE 22 35 29.96 1015 9 14.48406 0 0
10:53 pm 22:53 Cloudy with Light Thunderstorms 64 18 N/A N/A S 15 24 30.01 1016 10 16.0934 0.04 1.016
11:01 pm 23:01 Cloudy with Light Rain 64 18 N/A N/A SSE 16 26 29.98 1015 10 16.0934 0 0.0254
11:53 pm 23:53 Clear 66 19 N/A N/A E 6 9 29.95 1014 10 16.0934 0.01 0.254

Powered by AerisWeather